Location: Błaszki
(51.6534°N, 18.4393°E)
Time: 00:05:21
(UTC+01:00)

ISS - Visible Passes

Search period start: 24 January 2019 00:00
Search period end: 03 February 2019 00:00
Orbit: 404 x 410 km, 51.6° (Epoch: 24 January)

Date Brightness Start Highest point End Pass type
(mag) Time Alt. Az. Time Alt. Az. Time Alt. Az.
24 Jan -1.8 17:49:31 10° S 17:51:31 15° SE 17:52:04 15° SE visible
24 Jan -0.8 19:24:18 10° WSW 19:24:47 13° SW 19:24:47 13° SW visible
25 Jan -2.7 18:33:09 10° SW 18:35:41 35° S 18:35:41 35° S visible
26 Jan -2.4 17:42:10 10° SSW 17:45:00 27° SSE 17:46:30 19° ESE visible
26 Jan -1.3 19:17:58 10° WSW 19:19:14 21° WSW 19:19:14 21° WSW visible
27 Jan -3.7 18:26:37 10° WSW 18:29:53 61° SSE 18:29:59 61° SSE visible
28 Jan -3.2 17:35:23 10° SW 17:38:33 45° SSE 17:40:43 18° E visible
28 Jan -1.8 19:11:40 10° W 19:13:26 29° W 19:13:26 29° W visible
29 Jan -3.9 18:20:15 10° WSW 18:23:33 83° S 18:24:07 58° E visible
29 Jan -0.2 19:56:48 10° W 19:56:50 10° W 19:56:50 10° W visible
30 Jan -3.7 17:28:51 10° WSW 17:32:08 68° SSE 17:34:47 15° E visible
30 Jan -2.3 19:05:21 10° W 19:07:30 37° W 19:07:30 37° W visible
31 Jan -3.9 18:13:54 10° W 18:17:13 88° N 18:18:10 44° E visible
31 Jan -0.4 19:50:26 10° W 19:50:52 13° W 19:50:52 13° W visible
01 Feb -3.8 17:22:26 10° W 17:25:44 87° S 17:28:49 12° E visible
01 Feb -2.9 18:58:59 10° W 19:01:32 49° W 19:01:32 49° W visible
02 Feb -3.9 18:07:30 10° W 18:10:49 87° SSW 18:12:12 32° E visible
02 Feb -0.7 19:44:06 10° W 19:44:55 16° W 19:44:55 16° W visible
